Volver al catálogo

FREGAT R/B

ActivoHEO
NORAD 41033·ROCKET BODY·🇷🇺 Russia

Lanzado Nov 17, 2015 desde Plesetsk Cosmodrome

Loading…

Próximos Pases (próximas 24 horas)

TLE

ActualizadoSource: Space-Track

Época: Sep 10, 2026, 03:23 UTC

1 41033U 15066B   26253.14135527 -.00001063  00000-0 -10491-3 0  9995
2 41033  62.7870 296.7546 7395559 268.4269  14.3064  2.01986324 79630

Sigue FREGAT R/B en tiempo real con AllMySat

Download on the App Store